Regional Weather Roundup
Issued by NWS

Home | Current Version | Previous Version | Graphics & Text | Print | Product List | Glossary On
Versions: 1 2 3 4 5 6 7 8 9 10 11 12 13 14 15 16 17 18 19 20 21 22 23 24 25 26 27 28 29 30 31 32 33 34 35 36 37 38 39 40 41 42 43 44 45 46 47 48 49 50
000
ASUS45 KSLC 041410
RWRUT

UTAH REGIONAL WEATHER ROUNDUP
NATIONAL WEATHER SERVICE SALT LAKE CITY UT
700 AM MST WED MAR 04 2015

UTZ001>011-023>025-041500-

NORTHERN UTAH

CITY           SKY/WX    TMP DP  RH WIND       PRES   REMARKS
BRIGHAM CITY   CLEAR     20  17  85 CALM      30.12R
HILL AFB       PTCLDY    24  18  78 VRB5      30.09R WCI  18
LOGAN          CLEAR     21  13  71 CALM      30.10R
OGDEN          PTCLDY    24  20  84 NW6       30.10R WCI  17
PROVO AIRPORT  PTCLDY    25  19  80 SE5       30.11R WCI  19
SALT LAKE CITY PTCLDY    26  21  81 SE6       30.11R WCI  19
VERNAL         CLEAR     17   8  67 CALM      30.04R
WENDOVER       PTCLDY    27   9  46 E6        30.13R WCI  20
HEBER CITY     CLEAR      9   5  85 CALM      30.07R
WEST JORDAN    CLEAR     18  12  79 CALM      30.11R

$$

UTZ012>022-026-027-041500-

SOUTHERN/CENTRAL UTAH

CITY           SKY/WX    TMP DP  RH WIND       PRES   REMARKS
BLANDING       CLEAR     22  14  71 NW7       30.02R WCI  13
BRYCE CANYON   PTCLDY    -6  -9  86 W9        30.00R WCI -23
CEDAR CITY     PTCLDY     7   3  84 E3        30.06R
DELTA          CLEAR     19  17  93 E3        30.12R
HANKSVILLE     CLEAR     23  21  93 CALM      30.08R
MILFORD        CLEAR     13   8  81 CALM      30.10R
MOAB/CYNLANDS  CLOUDY    24  19  81 CALM      30.03R
PRICE          CLEAR     21  10  62 NW9       30.01R WCI  11
ST GEORGE      SUNNY     34  25  69 CALM      30.10R
KANAB          CLEAR     27  14  59 N5        30.08R WCI  21

$$

REGIONAL REPORTS     COLORADO/ARIZONA

CITY           SKY/WX    TMP DP  RH WIND       PRES   REMARKS
CRAIG, CO      MOCLDY     3  -1  83 E3        30.02R
GRAND JUNCTION MOCLDY    25  19  78 W5        30.02R WCI  19
RIFLE          CLOUDY    22  10  60 W5        30.03R WCI  16
MONTROSE       CLOUDY    26  20  77 N3        30.00R
CORTEZ         CLOUDY    26  16  65 NW8       29.95R WCI  18
PAGE, AZ       CLEAR     30  17  58 SW3       30.02R
GRAND CANYON   PTCLDY    17  16  95 CALM      29.98R
KINGMAN        CLEAR     32  27  81 E10       30.02R WCI  24
FLAGSTAFF      NOT AVBL

$$

REGIONAL REPORTS    NEVADA/IDAHO/WYOMING

CITY           SKY/WX    TMP DP  RH WIND       PRES   REMARKS
LAS VEGAS, NV  CLEAR     44  15  31 N13       30.05R
ELY            MOCLDY     3  -1  83 S10       30.10R WCI -12
ELKO           PTCLDY    14   9  80 CALM      30.14R
POCATELLO, ID  CLEAR     10   7  87 CALM      30.15R
BURLEY         CLEAR     17   9  70 SW3       30.15R
EVANSTON, WY   PTCLDY    11   8  88 W9        29.99R WCI  -2
ROCK SPRINGS   LGT SNOW   1  -3  83 NE5       30.00R FOG     WCI  -9

$$



USA.gov is the U.S. government's official web portal to all federal, state and local government web resources and services.